Weather History for KW22 - January, 2013

Change the Weather History Date:

Wednesday, January 30, 2013

  Actual Average (KEKN) Record (KEKN)
Temperature  
Mean Temperature 58 °F 30 °F  
Max Temperature 71 °F 40 °F 71 °F (1916)
Min Temperature 44 °F 20 °F -11 °F (2014)
Degree Days  
Heating Degree Days 8 35  
Month to date heating degree days 1076  
Since 1 July heating degree days 3367  
Cooling Degree Days 0 0  
Month to date cooling degree days 0  
Year to date cooling degree days 0  
Growing Degree Days 8 (Base 50)    
Moisture  
Dew Point 52 °F    
Average Humidity 82    
Maximum Humidity 100    
Minimum Humidity 50    
Precipitation  
Precipitation 1.26 in 0.10 in 1.32 in (2013)
Month to date precipitation 3.12  
Year to date precipitation 3.12  
Snow  
Snow 0.00 in - - ()
Month to date snowfall  
Since 1 September snowfall  
Snow Depth -    
Sea Level Pressure  
Sea Level Pressure 29.56 in    
Wind  
Wind Speed 15 mph (South)    
Max Wind Speed 41 mph    
Max Gust Speed 53 mph    
Visibility 7 miles    
Events Rain    
T = Trace of Precipitation, MM = Missing Value Source: NWS Daily Summary

Daily Weather History Graph

Daily Weather History Graph

Search for Another Location

Airport or City:

Trip Planner

Search our weather history database for the weather conditions in past years. The results will help you decide how hot, cold, wet, or windy it might be!

Date:

Astronomy

Jan. 30, 2013 Rise Set
Actual Time 7:29 AM EST 5:40 PM EST
Civil Twilight 7:00 AM EST 6:08 PM EST
Nautical Twilight 6:28 AM EST 6:40 PM EST
Astronomical Twilight 5:57 AM EST 7:12 PM EST
Moon 9:34 PM EST (1/30) 8:58 AM EST (1/30)
Length of Visible Light 11h 07m
Length of Day
10h 11m
Waning Gibbous, 88% of the Moon is Illuminated
Jan 30
Waning Gibbous
Feb 3
Last Quarter
Feb 10
New
Feb 17
First Quarter
Feb 25
Full

Hourly Weather History & Observations

Time (EST) Temp. Windchill Dew Point Humidity Pressure Visibility Wind Dir Wind Speed Gust Speed Precip Events Conditions
12:15 AM 60.8 °F - 46.4 °F 59% 29.85 in 10.0 mi South 9.2 mph - N/A   Clear
1:35 AM 62.6 °F - 46.4 °F 55% 29.80 in 10.0 mi South 12.7 mph 19.6 mph N/A   Clear
1:55 AM 62.6 °F - 48.2 °F 59% 29.80 in 10.0 mi South 10.4 mph - N/A   Clear
2:15 AM 62.6 °F - 48.2 °F 59% 29.78 in 10.0 mi South 10.4 mph 18.4 mph N/A   Clear
2:35 AM 62.6 °F - 48.2 °F 59% 29.77 in 10.0 mi South 11.5 mph - N/A   Clear
2:55 AM 62.6 °F - 48.2 °F 59% 29.76 in 10.0 mi South 10.4 mph 17.3 mph N/A   Clear
3:15 AM 62.6 °F - 48.2 °F 59% 29.75 in 10.0 mi South 11.5 mph - N/A   Clear
3:35 AM 64.4 °F - 48.2 °F 56% 29.73 in 10.0 mi South 18.4 mph 26.5 mph N/A   Clear
3:55 AM 64.4 °F - 51.8 °F 64% 29.72 in 10.0 mi South 20.7 mph 25.3 mph N/A   Clear
4:35 AM 64.4 °F - 51.8 °F 64% 29.69 in 10.0 mi South 20.7 mph 32.2 mph N/A   Clear
4:55 AM 64.4 °F - 51.8 °F 64% 29.69 in 10.0 mi South 19.6 mph 29.9 mph N/A   Clear
5:15 AM 64.4 °F - 51.8 °F 64% 29.68 in 10.0 mi South 18.4 mph 21.9 mph N/A   Clear
5:35 AM 64.4 °F - 51.8 °F 64% 29.66 in 10.0 mi South 21.9 mph 26.5 mph N/A   Clear
5:55 AM 64.4 °F - 51.8 °F 64% 29.65 in 10.0 mi South 19.6 mph 27.6 mph N/A   Clear
6:15 AM 66.2 °F - 51.8 °F 60% 29.64 in 10.0 mi South 16.1 mph 25.3 mph N/A   Clear
6:35 AM 66.2 °F - 51.8 °F 60% 29.62 in 10.0 mi South 23.0 mph 29.9 mph N/A   Clear
6:55 AM 66.2 °F - 51.8 °F 60% 29.61 in 10.0 mi South 21.9 mph 29.9 mph N/A   Clear
7:15 AM 68.0 °F - 51.8 °F 56% 29.61 in 10.0 mi South 18.4 mph 28.8 mph N/A   Clear
7:35 AM 68.0 °F - 51.8 °F 56% 29.60 in 10.0 mi South 24.2 mph 34.5 mph N/A   Clear
7:55 AM 68.0 °F - 51.8 °F 56% 29.59 in 10.0 mi South 25.3 mph 36.8 mph N/A   Clear
8:15 AM 68.0 °F - 51.8 °F 56% 29.58 in 10.0 mi South 25.3 mph 40.3 mph N/A   Clear
8:35 AM 69.8 °F - 51.8 °F 53% 29.58 in 10.0 mi South 21.9 mph 43.7 mph N/A   Clear
8:55 AM 69.8 °F - 51.8 °F 53% 29.58 in 10.0 mi South 25.3 mph 39.1 mph N/A   Clear
9:15 AM 69.8 °F - 51.8 °F 53% 29.56 in 10.0 mi South 41.4 mph 52.9 mph N/A   Partly Cloudy
9:35 AM 71.6 °F - 51.8 °F 50% 29.55 in 10.0 mi South 31.1 mph 44.9 mph N/A   Clear
9:55 AM 71.6 °F - 53.6 °F 53% 29.54 in 10.0 mi South 29.9 mph 48.3 mph N/A   Partly Cloudy
10:15 AM 71.6 °F - 51.8 °F 50% 29.54 in 10.0 mi South 27.6 mph 46.0 mph N/A   Partly Cloudy
10:35 AM 71.6 °F - 53.6 °F 53% 29.53 in 10.0 mi South 31.1 mph 52.9 mph N/A   Scattered Clouds
10:55 AM 59.0 °F - 55.4 °F 88% 29.64 in 0.5 mi NW 19.6 mph 50.6 mph 0.36 in Rain Heavy Rain
11:15 AM 55.4 °F - 55.4 °F 100% 29.65 in 5.0 mi WNW 12.7 mph 23.0 mph 0.03 in Rain Light Rain
11:35 AM 55.4 °F - 55.4 °F 100% 29.67 in 5.0 mi WSW 10.4 mph - 0.04 in Rain Light Rain
11:55 AM 55.4 °F - 55.4 °F 100% 29.67 in 3.0 mi SSW 6.9 mph - 0.06 in Rain Light Rain
12:15 PM 55.4 °F - 55.4 °F 100% 29.65 in 4.0 mi South 9.2 mph - N/A Rain Light Rain
12:35 PM 55.4 °F - 55.4 °F 100% 29.65 in 7.0 mi South 6.9 mph - N/A   Overcast
12:55 PM 55.4 °F - 55.4 °F 100% 29.63 in 7.0 mi South 5.8 mph - N/A   Overcast
1:15 PM 55.4 °F - 55.4 °F 100% 29.62 in 5.0 mi SSE 4.6 mph - N/A Rain Light Rain
1:35 PM 55.4 °F - 55.4 °F 100% 29.61 in 5.0 mi South 6.9 mph - N/A Rain Light Rain
1:55 PM 55.4 °F - 55.4 °F 100% 29.61 in 2.5 mi South 6.9 mph - 0.02 in Rain Light Rain
2:15 PM 55.4 °F - 55.4 °F 100% 29.59 in 2.5 mi SSE 5.8 mph - N/A Rain Light Rain
2:35 PM 55.4 °F - 55.4 °F 100% 29.58 in 4.0 mi SSE 6.9 mph - 0.02 in Rain Light Rain
2:55 PM 55.4 °F - 55.4 °F 100% 29.57 in 4.0 mi SSE 8.1 mph - 0.03 in Rain Light Rain
3:15 PM 55.4 °F - 55.4 °F 100% 29.56 in 2.5 mi South 6.9 mph - 0.03 in Rain Light Rain
3:35 PM 55.4 °F - 55.4 °F 100% 29.56 in 5.0 mi South 10.4 mph - 0.06 in Rain Light Rain
3:55 PM 55.4 °F - 55.4 °F 100% 29.55 in 3.0 mi South 8.1 mph - 0.11 in Rain Light Rain
4:15 PM 55.4 °F - 55.4 °F 100% 29.53 in 5.0 mi SE 6.9 mph - 0.01 in Rain Light Rain
4:35 PM 55.4 °F - 55.4 °F 100% 29.51 in 6.0 mi SSE 8.1 mph - 0.01 in Rain Light Rain
4:55 PM 55.4 °F - 55.4 °F 100% 29.49 in 3.0 mi SSE 11.5 mph 17.3 mph 0.03 in Rain Light Rain
5:15 PM 55.4 °F - 55.4 °F 100% 29.47 in 4.0 mi SSE 10.4 mph 16.1 mph 0.02 in Rain Light Rain
5:35 PM 55.4 °F - 55.4 °F 100% 29.46 in 4.0 mi SSE 10.4 mph - 0.05 in Rain Light Rain
5:55 PM 55.4 °F - 55.4 °F 100% 29.44 in 5.0 mi SSE 12.7 mph - 0.07 in Rain Light Rain
6:15 PM 55.4 °F - 53.6 °F 94% 29.43 in 5.0 mi South 9.2 mph 18.4 mph 0.02 in Rain Rain
6:35 PM 55.4 °F - 53.6 °F 94% 29.41 in 5.0 mi South 11.5 mph - 0.06 in Rain Rain
6:55 PM 55.4 °F - 53.6 °F 94% 29.40 in 5.0 mi South 15.0 mph 21.9 mph 0.09 in Rain Light Rain
7:15 PM 55.4 °F - 55.4 °F 100% 29.38 in 5.0 mi South 13.8 mph 20.7 mph 0.02 in Rain Light Rain
7:35 PM 55.4 °F - 53.6 °F 94% 29.37 in 5.0 mi South 17.3 mph 24.2 mph 0.03 in Rain Light Rain
7:55 PM 55.4 °F - 55.4 °F 100% 29.36 in 3.0 mi South 15.0 mph 21.9 mph 0.10 in Rain Rain
8:15 PM 53.6 °F - 51.8 °F 94% 29.39 in 3.0 mi WSW 18.4 mph 34.5 mph 0.09 in Rain Heavy Rain
8:35 PM 50.0 °F - 50.0 °F 100% 29.37 in 5.0 mi SW 13.8 mph 26.5 mph 0.13 in   Overcast
8:55 PM 50.0 °F - 50.0 °F 100% 29.37 in 5.0 mi WSW 15.0 mph - 0.15 in Rain Rain
9:15 PM 48.2 °F - 48.2 °F 100% 29.38 in 2.5 mi WSW 12.7 mph 21.9 mph 0.06 in Rain Rain
9:35 PM 48.2 °F - 48.2 °F 100% 29.38 in 4.0 mi SSW 13.8 mph 24.2 mph 0.08 in Rain Rain
9:55 PM 48.2 °F - 48.2 °F 100% 29.35 in 3.0 mi SSW 16.1 mph 26.5 mph 0.12 in Rain Rain
10:15 PM 46.4 °F 40.1 °F 46.4 °F 100% 29.37 in 5.0 mi SSW 15.0 mph 31.1 mph 0.02 in Rain Rain
10:35 PM 46.4 °F 40.7 °F 46.4 °F 100% 29.35 in 3.0 mi SSW 12.7 mph 25.3 mph 0.07 in Rain Rain
10:55 PM 46.4 °F 40.4 °F 46.4 °F 100% 29.39 in 5.0 mi SSW 13.8 mph 21.9 mph 0.09 in Rain Rain
11:15 PM 46.4 °F 39.0 °F 46.4 °F 100% 29.35 in 4.0 mi SW 19.6 mph 31.1 mph 0.01 in   Mostly Cloudy
11:35 PM 44.6 °F 37.4 °F 44.6 °F 100% 29.35 in 10.0 mi WSW 16.1 mph 25.3 mph 0.03 in   Mostly Cloudy
11:55 PM 44.6 °F 36.9 °F 42.8 °F 93% 29.36 in 10.0 mi SW 18.4 mph 29.9 mph 0.03 in   Mostly Cloudy